Location: Croagnes
(43.9363°N, 5.3265°E)
Time: 17:25:27
(UTC+00:00)

Cosmos 1842 - Pass Details

Date: 06 June 2020
Orbit: 522 x 537 km, 82.5° (Epoch: 12 July)

Event Time Altitude Azimuth Distance (km) Brightness Sun altitude
Exits shadow 21:28:18 15° 211° (SSW) 1,481 5.2 -17.0°
Maximum altitude 21:31:18 47° 281° (WNW) 708 4.1 -17.3°
Drops below altitude 10° 21:35:05 10° 357° (N) 1,776 6.9 -17.6°
Sets 21:37:17 0° 3° (N) 2,668 7.8 -17.8°
